Location: La Silve
(44.2414°N, 5.8889°E)
Time: 06:11:32
(UTC+00:00)

Nadezhda 3 Rocket - Pass Details

Date: 01 December 2020
Orbit: 956 x 1000 km, 82.9° (Epoch: 27 January)

Event Time Altitude Azimuth Distance (km) Brightness Sun altitude
Rises 17:20:32 0° 166° (SSE) 3,704 7.1 -14.2°
Reaches altitude 10° 17:23:09 10° 160° (SSE) 2,762 6.3 -14.7°
Maximum altitude 17:29:08 45° 90° (E) 1,334 4.3 -15.7°
Drops below altitude 10° 17:35:09 10° 20° (NNE) 2,777 6.1 -16.7°
Sets 17:37:46 0° 14° (NNE) 3,728 6.8 -17.2°
